Kindakun Rocks, British Columbia

9:42 PM PST on November 22, 2017 (GMT -0800)
Kindakun Rocks

Weather History for CWQS - December, 2012

Change the Weather History Date:

Monday, December 10, 2012

  Actual Average (CYZP) Record (CYZP)
Temperature  
Mean Temperature 45 °F -  
Max Temperature 46 °F 42 °F 51 °F (1997)
Min Temperature 43 °F 35 °F 28 °F (2000)
Degree Days  
Heating Degree Days 20    
Moisture  
Dew Point 44 °F    
Average Humidity 92    
Maximum Humidity 95    
Minimum Humidity 84    
Precipitation  
Precipitation 0.67 in - - ()
Sea Level Pressure  
Sea Level Pressure 29.96 in    
Wind  
Wind Speed 14 mph ()    
Max Wind Speed 32 mph    
Max Gust Speed 40 mph    
Averages and records for this station are not official NWS values.
T = Trace of Precipitation, MM = Missing Value Source: Averaged Metar Reports

Daily Weather History Graph

Daily Weather History Graph

Search for Another Location

Airport or City:

Trip Planner

Search our weather history database for the weather conditions in past years. The results will help you decide how hot, cold, wet, or windy it might be!

Date:

Astronomy

Dec. 10, 2012 Rise Set
Actual Time 8:55 AM PST 4:32 PM PST
Civil Twilight 8:13 AM PST 5:14 PM PST
Nautical Twilight 7:28 AM PST 6:00 PM PST
Astronomical Twilight 6:45 AM PST 6:42 PM PST
Moon 5:31 AM PST (12/10) 2:40 PM PST (12/10)
Length of Visible Light 9h 01m
Length of Day
7h 36m
Waning Crescent, 9% of the Moon is Illuminated
Dec 10
Waning Crescent
Dec 13
New
Dec 19
First Quarter
Dec 28
Full
Jan 4
Last Quarter

Hourly Weather History & Observations

Time (PST) Temp. Windchill Dew Point Humidity Pressure Visibility Wind Dir Wind Speed Gust Speed Precip Events Conditions
12:00 AM 46.0 °F 40.2 °F 44.1 °F 93% 30.22 in - West 12.7 mph - 0.08 in   Unknown
1:00 AM 46 °F - 44 °F 90% 30.22 in - West 11.5 mph - -  
1:00 AM 46.0 °F 40.6 °F 44.1 °F 93% 30.22 in - West 11.5 mph - 0.13 in   Unknown
2:00 AM 46.0 °F 40.6 °F 44.1 °F 93% 30.22 in - West 11.5 mph - 0.11 in   Unknown
3:00 AM 46.0 °F 39.9 °F 44.2 °F 93% 30.22 in - West 13.8 mph - 0.16 in   Unknown
4:00 AM 46 °F - 44 °F 90% 30.20 in - West 11.5 mph - -  
4:00 AM 45.9 °F 40.4 °F 44.1 °F 93% 30.20 in - West 11.5 mph - 0.11 in   Unknown
5:00 AM 45.9 °F 40.8 °F 44.2 °F 94% 30.19 in - West 10.4 mph - 0.12 in   Unknown
6:00 AM 46.0 °F 40.2 °F 44.4 °F 94% 30.17 in - WSW 12.7 mph - 0.13 in   Unknown
7:00 AM 46 °F - 45 °F 93% 30.15 in - WSW 12.7 mph - -  
7:00 AM 46.0 °F 40.2 °F 44.6 °F 95% 30.15 in - WSW 12.7 mph - 0.15 in   Unknown
8:00 AM 46.4 °F 40.7 °F 44.8 °F 94% 30.13 in - WSW 12.7 mph - 0.05 in   Unknown
9:00 AM 46.4 °F 40.1 °F 44.8 °F 94% 30.11 in - WSW 15.0 mph - 0.01 in   Unknown
10:00 AM 47 °F - 45 °F 89% 30.09 in - WSW 15.0 mph - -  
10:00 AM 46.6 °F - 44.8 °F 93% 30.09 in - WSW 15.0 mph - N/A   Unknown
11:00 AM 46.2 °F 40.5 °F 44.2 °F 93% 30.05 in - SSW 12.7 mph - N/A   Unknown
12:00 PM 46.4 °F 39.2 °F 44.4 °F 93% 30.01 in - SW 18.4 mph - 0.01 in   Unknown
1:00 PM 46 °F - 44 °F 91% 29.95 in - SW 20.7 mph - -  
1:00 PM 46.2 °F 38.5 °F 44.2 °F 93% 29.95 in - SW 20.7 mph - N/A   Unknown
2:00 PM 46.2 °F 38.3 °F 43.9 °F 92% 29.90 in - SSW 21.9 mph 28.8 mph N/A   Unknown
3:00 PM 45.9 °F 37.0 °F 43.5 °F 92% 29.82 in - SSW 26.5 mph - 0.01 in   Unknown
4:00 PM 46 °F - 43 °F 84% 29.77 in - SSW 29.9 mph - -  
4:00 PM 45.5 °F 36.0 °F 42.6 °F 90% 29.77 in - SSW 29.9 mph 36.8 mph 0.01 in   Unknown
5:00 PM 44.2 °F 33.9 °F 41.5 °F 90% 29.71 in - SSW 32.2 mph 40.3 mph 0.08 in   Unknown
6:00 PM 44.4 °F 35.5 °F 42.8 °F 94% 29.68 in - South 24.2 mph 31.1 mph 0.04 in   Unknown
7:00 PM 46 °F - 44 °F 92% 29.64 in - SW 17.3 mph - -  
7:00 PM 45.9 °F 38.8 °F 44.4 °F 95% 29.64 in - SW 17.3 mph - 0.01 in   Unknown
8:00 PM 46.0 °F 39.6 °F 44.4 °F 94% 29.61 in - West 15.0 mph - 0.02 in   Unknown
10:00 PM 44 °F - 42 °F 91% 29.57 in - West 19.6 mph - -  
10:00 PM 44.4 °F 36.4 °F 42.3 °F 92% 29.57 in - West 19.6 mph 27.6 mph 0.02 in   Unknown
11:00 PM 43.7 °F 34.3 °F 40.8 °F 90% 29.57 in - WNW 25.3 mph 32.2 mph 0.02 in   Unknown